Wakefield, VA

9:04 AM EST on December 12, 2019 (GMT -0500)
Wakefield Municipal

Weather History for KAKQ - October, 2019

Change the Weather History Date:

Tuesday, October 29, 2019

  Actual Average (KJGG) Record (KJGG)
Temperature  
Mean Temperature 60 °F -  
Max Temperature 71 °F 67 °F 85 °F (1984)
Min Temperature 50 °F 44 °F 27 °F (1976)
Degree Days  
Heating Degree Days 4    
Growing Degree Days 10 (Base 50)    
Moisture  
Dew Point 56 °F    
Average Humidity 85    
Maximum Humidity 97    
Minimum Humidity 66    
Precipitation  
Precipitation 0.00 in - - ()
Sea Level Pressure  
Sea Level Pressure 30.23 in    
Wind  
Wind Speed 1 mph (ENE)    
Max Wind Speed 6 mph    
Max Gust Speed -    
Visibility 10 miles    
Events      
Averages and records for this station are not official NWS values.
T = Trace of Precipitation, MM = Missing Value Source: NWS Daily Summary

Daily Weather History Graph

Daily Weather History Graph

Search for Another Location

Airport or City:

Astronomy

Oct. 29, 2019 Rise Set
Actual Time 7:28 AM EDT 6:14 PM EDT
Civil Twilight 7:02 AM EDT 6:40 PM EDT
Nautical Twilight 6:31 AM EDT 7:11 PM EDT
Astronomical Twilight 6:01 AM EDT 7:41 PM EDT
Moon 8:58 AM EDT (10/29) 7:38 PM EDT (10/29)
Length of Visible Light 11h 38m
Length of Day
10h 45m
Waxing Crescent, 3% of the Moon is Illuminated
Oct 29
Waxing Crescent
Nov 4
First Quarter
Nov 12
Full
Nov 19
Last Quarter
Nov 26
New

Hourly Weather History & Observations

Time (EDT) Temp. Dew Point Humidity Pressure Visibility Wind Dir Wind Speed Gust Speed Precip Events Conditions
12:54 AM 51.1 °F 48.9 °F 92% 30.21 in 9.0 mi Calm Calm - N/A   Clear
1:54 AM 50.0 °F 48.0 °F 93% 30.20 in 10.0 mi Calm Calm - N/A   Clear
2:54 AM 52.0 °F 50.0 °F 93% 30.20 in 10.0 mi Calm Calm - N/A   Clear
3:54 AM 51.1 °F 48.9 °F 92% 30.21 in 10.0 mi Calm Calm - N/A   Clear
4:21 AM 51.1 °F 48.9 °F 92% 30.20 in 9.0 mi Calm Calm - N/A   Mostly Cloudy
4:54 AM 53.1 °F 51.1 °F 93% 30.21 in 10.0 mi Calm Calm - N/A   Overcast
5:39 AM 54.0 °F 52.0 °F 93% 30.20 in 6.0 mi Calm Calm - N/A   Scattered Clouds
5:54 AM 54.0 °F 53.1 °F 97% 30.21 in 5.0 mi Calm Calm - N/A   Clear
6:54 AM 54.0 °F 53.1 °F 97% 30.22 in 10.0 mi Calm Calm - N/A   Mostly Cloudy
7:54 AM 57.0 °F 55.0 °F 93% 30.23 in 10.0 mi Calm Calm - N/A   Mostly Cloudy
8:06 AM 57.0 °F 55.0 °F 93% 30.23 in 10.0 mi Calm Calm - N/A   Mostly Cloudy
8:23 AM 57.2 °F 55.4 °F 94% 30.23 in 10.0 mi Calm Calm - N/A   Overcast
8:54 AM 60.1 °F 57.9 °F 93% 30.25 in 10.0 mi Calm Calm - N/A   Overcast
9:54 AM 63.0 °F 59.0 °F 87% 30.25 in 10.0 mi ENE 4.6 mph - N/A   Overcast
10:31 AM 64.0 °F 60.1 °F 87% 30.25 in 10.0 mi ENE 5.8 mph - N/A   Overcast
10:44 AM 64.9 °F 60.1 °F 84% 30.26 in 10.0 mi Variable 4.6 mph - N/A   Overcast
10:54 AM 64.9 °F 59.0 °F 81% 30.26 in 10.0 mi Variable 4.6 mph - N/A   Overcast
11:01 AM - - N/A% - - North - - N/A   Unknown
11:54 AM 68.0 °F 59.0 °F 73% 30.26 in 10.0 mi ENE 4.6 mph - N/A   Overcast
12:54 PM 70.0 °F 59.0 °F 68% 30.25 in 10.0 mi Calm Calm - N/A   Overcast
1:02 PM 70.0 °F 59.0 °F 68% 30.25 in 10.0 mi Calm Calm - N/A   Overcast
1:27 PM 70.0 °F 59.0 °F 68% 30.23 in 10.0 mi Calm Calm - N/A   Overcast
1:54 PM 71.1 °F 59.0 °F 66% 30.22 in 10.0 mi Calm Calm - N/A   Overcast
2:54 PM 71.1 °F 59.0 °F 66% 30.22 in 10.0 mi Calm Calm - N/A   Overcast
3:54 PM 70.0 °F 59.0 °F 68% 30.21 in 10.0 mi NE 4.6 mph - N/A   Overcast
4:54 PM 69.1 °F 60.1 °F 73% 30.22 in 10.0 mi Calm Calm - N/A   Mostly Cloudy
5:06 PM 69.1 °F 60.1 °F 73% 30.22 in 10.0 mi Calm Calm - N/A   Scattered Clouds
5:54 PM 66.0 °F 60.1 °F 81% 30.23 in 10.0 mi Calm Calm - N/A   Clear
6:54 PM 62.1 °F 59.0 °F 90% 30.23 in 10.0 mi Calm Calm - N/A   Clear
7:54 PM 61.0 °F 57.9 °F 90% 30.24 in 10.0 mi Calm Calm - N/A   Clear
8:54 PM 60.1 °F 57.9 °F 93% 30.25 in 10.0 mi Calm Calm - N/A   Mostly Cloudy
9:54 PM 57.9 °F 55.9 °F 93% 30.26 in 10.0 mi Calm Calm - N/A   Mostly Cloudy
10:54 PM 57.9 °F 55.9 °F 93% 30.26 in 10.0 mi Calm Calm - N/A   Overcast
11:54 PM 57.0 °F 55.0 °F 93% 30.25 in 10.0 mi Calm Calm - N/A   Mostly Cloudy